[[{"header":{"parameterUnit":"m.s-1","parameterCategory":1,"la1":30.2991,"la2":30.254,"lo1":-89.0895,"lo2":-89.0444,"dy":0.0017,"dx":0.0017,"nx":28,"ny":28,"refTime":"2023-10-24T03:00:00:Z","depth":0,"parameterNumber":2,"parameterNumberName":"U-component_of_WINDS"},"data":[0,0,0,0,0,0,0,0,0,0,0,0,0,0,0,0,0,0,0,0,0,0,0,0,0,0,0,0,0,0,0,0,0,0,0,0,0,0,0,0,0,0,0,0,0,0,0,0,0,0,0,0,0,0,0,0,0,0,-2.7358,-2.7359,0,-2.7449,-2.745,-2.7451,-2.7431,-2.7429,-2.7427,-2.7426,-2.7518,-2.7522,-2.7526,0,0,0,0,0,0,0,0,0,0,0,0,0,-2.717,-2.7174,-2.7358,-2.7359,-2.736,-2.7449,-2.745,-2.7451,-2.7431,-2.7429,-2.7427,-2.7425,-2.7517,-2.7522,-2.7526,0,0,0,0,0,0,0,0,0,0,0,0,0,-2.7255,-2.7175,-2.7358,-2.7361,-2.7362,-2.7448,-2.745,-2.7451,-2.7432,-2.7429,-2.7426,-2.7424,-2.7515,-2.7521,-2.7527,-2.7616,0,0,-2.7546,-2.7548,0,0,0,0,0,0,0,0,-2.7251,-2.7262,-2.7359,-2.7361,-2.7362,-2.7426,-2.7417,-2.7506,-2.7432,-2.7405,-2.7426,-2.7423,-2.7489,-2.7497,-2.752,-2.762,-2.7624,-2.7546,-2.755,-2.7552,-2.7554,0,0,0,0,0,0,0,-2.7245,-2.7258,-2.7394,-2.7361,-2.7363,-2.7359,-2.7368,-2.7434,-2.746,-2.7407,-2.7406,-2.7417,-2.749,-2.7514,-2.7522,-2.7625,-2.7546,-2.7551,-2.7555,-2.7557,-2.7806,-2.7809,0,0,0,0,0,0,-2.7237,-2.7254,-2.7391,-2.7397,-2.7299,-2.7364,-2.7375,-2.7408,-2.746,-2.7465,-2.7419,-2.7416,-2.7505,-2.7515,-2.7525,-2.7633,-2.7552,-2.7558,-2.7562,-2.7803,-2.7806,-2.781,0,0,0,0,0,0,-2.7233,-2.725,-2.7387,-2.7325,-2.7342,-2.737,-2.7408,-2.7411,-2.7436,-2.7469,-2.7473,-2.7439,-2.7504,-2.7517,-2.7594,-2.7636,-2.7561,-2.7566,-2.7799,-2.7804,-2.7808,-2.785,0,0,0,0,0,0,-2.7228,-2.7248,-2.7281,-2.7326,-2.7346,-2.7454,-2.7411,-2.7415,-2.7446,-2.7443,-2.7489,-2.7494,-2.7503,-2.7585,-2.76,-2.7643,-2.7571,-2.7796,-2.7801,-2.7807,-2.7845,-2.7855,-2.7864,0,0,0,0,0,-2.7221,-2.7289,-2.7283,-2.73,-2.7387,-2.7456,-2.7468,-2.7476,-2.745,-2.7484,-2.7506,-2.7492,-2.763,-2.7593,-2.761,-2.7656,-2.7793,-2.78,-2.7806,-2.784,-2.7853,-2.7864,0,0,0,0,0,0,-2.7247,-2.7294,-2.7289,-2.7372,-2.7411,-2.7453,-2.7495,-2.7489,-2.7535,-2.753,-2.7539,-2.755,-2.7629,-2.765,-2.7608,-2.7746,-2.7708,-2.7718,-2.7728,-2.7741,-2.775,-2.7742,-2.7576,0,0,0,0,0,-2.7263,-2.7315,-2.7353,-2.7424,-2.7443,-2.7467,-2.7497,-2.7501,-2.7541,-2.7556,-2.7584,-2.7623,-2.7676,-2.771,-2.7759,-2.7849,-2.786,-2.7889,-2.7899,-2.7907,-2.7915,-2.7966,-2.798,-2.7831,-2.7831,-2.7831,0,0,-2.7295,-2.7328,-2.7359,-2.743,-2.746,-2.7514,-2.748,-2.7538,-2.7579,-2.7565,-2.764,-2.7662,-2.7707,-2.7792,-2.783,-2.7812,-2.7959,-2.7915,-2.7921,-2.7925,-2.7974,-2.7988,-2.8001,-2.7836,-2.7835,-2.7834,0,0,-2.7381,-2.7411,-2.7474,-2.7505,-2.7552,-2.7568,-2.7583,-2.7628,-2.7642,-2.7718,-2.771,-2.7759,-2.7848,-2.7881,-2.791,-2.8015,-2.8005,-2.8031,-2.808,-2.813,-2.8142,-2.8152,-2.819,-2.8203,-2.8039,-2.8039,-2.804,0,-2.7415,-2.7496,-2.7506,-2.7566,-2.7598,-2.7591,-2.7655,-2.7686,-2.7746,-2.7769,-2.7748,-2.7863,-2.7893,-2.7986,-2.8012,-2.8035,-2.8054,-2.8024,-2.8139,-2.815,-2.816,-2.8196,-2.821,-2.8042,-2.8042,-2.8042,-2.8041,0,-2.7536,-2.7593,-2.7638,-2.7698,-2.7735,-2.7797,-2.7818,-2.7855,-2.7858,-2.7876,-2.7955,-2.7991,-2.8049,-2.8072,-2.8074,-2.8167,-2.8154,-2.8137,-2.8098,-2.8176,-2.8211,-2.8224,-2.8046,-2.8045,-2.8044,-2.8044,0,0,-2.7636,-2.7705,-2.7721,-2.7749,-2.7803,-2.7847,-2.791,-2.7968,-2.8,-2.8044,-2.8098,-2.8176,-2.8161,-2.8194,-2.82,-2.8244,-2.8326,-2.8222,-2.8223,-2.8239,-2.8432,-2.8444,-2.846,-2.8322,-2.8324,-2.8326,-2.8428,0,-2.7727,-2.7837,-2.7851,-2.7949,-2.8003,-2.7999,-2.8055,-2.8094,-2.8115,-2.8164,-2.8187,-2.8242,-2.8218,-2.8238,-2.8282,-2.8307,-2.8365,-2.83,-2.8372,-2.8374,-2.8359,-2.8478,-2.849,-2.8584,-2.8442,-2.8444,-2.8446,0,-2.7846,-2.7895,-2.7999,-2.8048,-2.8071,-2.812,-2.8176,-2.8223,-2.8269,-2.8281,-2.832,-2.8322,-2.8389,-2.8351,-2.8444,-2.84,-2.8431,-2.8448,-2.8452,-2.8458,-2.8413,-2.8485,-2.8614,-2.8628,-2.8467,-2.8465,-2.8464,0,-2.7909,-2.8001,-2.8075,-2.81,-2.8159,-2.8194,-2.822,-2.8264,-2.8299,-2.8349,-2.8372,-2.8429,-2.846,-2.8505,-2.8523,-2.8493,-2.8616,-2.8578,-2.8628,-2.8628,-2.8651,-2.8649,-2.8786,-2.8674,-2.8674,-2.8673,-2.8673,0,-2.8008,-2.8072,-2.8105,-2.815,-2.8223,-2.8239,-2.8311,-2.8336,-2.8376,-2.8428,-2.8429,-2.8478,-2.8499,-2.8552,-2.8568,-2.8643,-2.8657,-2.8669,-2.8672,-2.8668,-2.8667,-2.8687,-2.8681,-2.8677,-2.8676,-2.8676,-2.8675,0,-2.8089,-2.8113,-2.8194,-2.8245,-2.826,-2.8311,-2.8355,-2.84,-2.8422,-2.8488,-2.8504,-2.8538,-2.8601,-2.8625,-2.87,-2.8711,-2.8799,-2.8797,-2.8783,-2.8783,-2.8832,-2.8827,-2.8984,-2.9006,-2.8881,-2.8882,-2.8883,0,-2.8149,-2.8198,-2.8255,-2.829,-2.8318,-2.8374,-2.8411,-2.8431,-2.8469,-2.8528,-2.8567,-2.863,-2.868,-2.8781,-2.8813,-2.8872,-2.8871,-2.8923,-2.888,-2.8876,-2.8872,-2.8868,-2.8874,-2.893,-2.8931,-2.8932,-2.8933,0,-2.8254,-2.8265,-2.8317,-2.8375,-2.8419,-2.8466,-2.8511,-2.854,-2.8567,-2.8611,-2.8675,-2.8715,-2.8795,-2.8857,-2.8919,-2.8947,-2.8945,-2.8947,-2.8962,-2.8957,-2.8947,-2.8953,-2.8803,-2.8942,-2.8942,-2.8941,-2.894,-2.894,-2.8326,-2.837,-2.8418,-2.8478,-2.8515,-2.8558,-2.8604,-2.8633,-2.8687,-2.8753,-2.8762,-2.8832,-2.8881,-2.8963,-2.8995,-2.9051,-2.9037,-2.9058,-2.9063,-2.9068,-2.9071,-2.894,-2.9062,-2.9062,-2.9062,-2.9062,-2.9062,0,-2.843,-2.8462,-2.8517,-2.8581,-2.8629,-2.8625,-2.8676,-2.8716,-2.8777,-2.8823,-2.8874,-2.895,-2.9013,-2.9051,-2.9114,-2.9152,-2.9153,-2.9168,-2.9164,-2.9171,-2.908,-2.9061,-2.9166,-2.9166,-2.9166,-2.9166,-2.9166,-2.9166,-2.849,-2.8566,-2.8583,-2.8678,-2.871,-2.8778,-2.8808,-2.8849,-2.8886,-2.8971,-2.9023,-2.9048,-2.9092,-2.9159,-2.9217,-2.9227,-2.925,-2.9266,-2.9275,-2.9188,-2.9177,-2.9167,-2.9149,-2.9271,-2.9271,-2.9361,-2.9362,-2.9363]},{"header":{"parameterUnit":"m.s-1","parameterCategory":1,"la1":30.2991,"la2":30.254,"lo1":-89.0895,"lo2":-89.0444,"dy":0.0017,"dx":0.0017,"nx":28,"ny":28,"refTime":"2023-10-24T03:00:00:Z","depth":0,"parameterNumber":3,"parameterNumberName":"V-component_of_WINDS"},"data":[0,0,0,0,0,0,0,0,0,0,0,0,0,0,0,0,0,0,0,0,0,0,0,0,0,0,0,0,0,0,0,0,0,0,0,0,0,0,0,0,0,0,0,0,0,0,0,0,0,0,0,0,0,0,0,0,0,0,1.1551,1.1551,0,1.1562,1.1563,1.1563,1.1573,1.1573,1.1573,1.1573,1.158,1.158,1.158,0,0,0,0,0,0,0,0,0,0,0,0,0,1.1535,1.1535,1.1551,1.1551,1.1551,1.1562,1.1563,1.1563,1.1573,1.1573,1.1573,1.1573,1.158,1.158,1.158,0,0,0,0,0,0,0,0,0,0,0,0,0,1.1544,1.1535,1.1551,1.1558,1.1558,1.1562,1.1563,1.1563,1.1573,1.1573,1.1573,1.1573,1.158,1.158,1.158,1.1577,0,0,1.1581,1.1581,0,0,0,0,0,0,0,0,1.1543,1.1544,1.1556,1.1557,1.1558,1.1567,1.156,1.1567,1.1573,1.1567,1.1573,1.1574,1.1575,1.1576,1.1577,1.1577,1.1578,1.1581,1.1581,1.1581,1.1581,0,0,0,0,0,0,0,1.1543,1.1544,1.1555,1.1557,1.1558,1.1559,1.1561,1.1561,1.157,1.1568,1.1568,1.157,1.1576,1.1577,1.1578,1.1578,1.1581,1.1581,1.1581,1.1581,1.1579,1.1579,0,0,0,0,0,0,1.1541,1.1543,1.1555,1.1556,1.1551,1.156,1.1561,1.1563,1.157,1.1571,1.157,1.157,1.1577,1.1577,1.1578,1.1576,1.1581,1.1581,1.1581,1.1579,1.1579,1.1579,0,0,0,0,0,0,1.1541,1.1542,1.1554,1.155,1.1551,1.156,1.1562,1.1564,1.1565,1.1572,1.1573,1.157,1.1577,1.1578,1.1578,1.1577,1.1581,1.1581,1.1579,1.1579,1.1579,1.1572,0,0,0,0,0,0,1.1541,1.1542,1.1541,1.155,1.1552,1.1555,1.1562,1.1564,1.1566,1.1567,1.1572,1.1573,1.1577,1.1578,1.1578,1.1577,1.1581,1.1579,1.1579,1.1579,1.1572,1.1572,1.1571,0,0,0,0,0,1.154,1.1537,1.1541,1.1542,1.1551,1.1555,1.1556,1.1562,1.1566,1.1565,1.157,1.1573,1.1577,1.1578,1.1578,1.1577,1.1579,1.1579,1.1579,1.1573,1.1572,1.1571,0,0,0,0,0,0,1.1525,1.1538,1.1543,1.1543,1.1548,1.1557,1.1555,1.1561,1.1564,1.1564,1.1571,1.1572,1.1572,1.1575,1.1575,1.1576,1.1579,1.1579,1.1574,1.1573,1.1572,1.1572,1.1581,0,0,0,0,0,1.1523,1.1526,1.1536,1.1535,1.1538,1.1547,1.1548,1.1554,1.1559,1.156,1.1565,1.1568,1.1571,1.1572,1.1575,1.1573,1.1575,1.1573,1.1572,1.1571,1.1571,1.1573,1.1572,1.1578,1.1578,1.1578,0,0,1.1516,1.1523,1.1524,1.1533,1.1537,1.1541,1.1548,1.155,1.1553,1.156,1.1562,1.1566,1.157,1.1571,1.1571,1.1573,1.157,1.1571,1.157,1.157,1.1572,1.1572,1.1571,1.1578,1.1578,1.1578,0,0,1.1505,1.1511,1.1512,1.1518,1.1526,1.1532,1.1533,1.1542,1.1545,1.1548,1.1554,1.1557,1.156,1.1565,1.1567,1.1563,1.1567,1.1563,1.1559,1.1561,1.1561,1.156,1.156,1.156,1.1563,1.1563,1.1563,0,1.1495,1.1501,1.1511,1.1515,1.1519,1.1529,1.153,1.1534,1.1542,1.1545,1.1547,1.1554,1.1558,1.1561,1.156,1.1561,1.1562,1.1562,1.156,1.156,1.156,1.1559,1.1559,1.1563,1.1563,1.1563,1.1563,0,1.149,1.1494,1.1494,1.1504,1.1508,1.151,1.152,1.1523,1.1529,1.1535,1.1539,1.1544,1.1549,1.1551,1.1554,1.1555,1.1556,1.1559,1.1562,1.1559,1.1559,1.1558,1.1562,1.1562,1.1562,1.1562,0,0,1.1467,1.1487,1.1486,1.1493,1.1504,1.1508,1.1511,1.1518,1.1521,1.1527,1.153,1.1535,1.154,1.1543,1.1548,1.1549,1.1548,1.1553,1.1553,1.1553,1.1551,1.1548,1.1548,1.1551,1.1551,1.1551,1.1551,0,1.1459,1.1467,1.1478,1.1482,1.1487,1.1499,1.1502,1.151,1.1516,1.1521,1.1528,1.1532,1.1537,1.1539,1.1541,1.1548,1.1548,1.1548,1.1554,1.1554,1.1553,1.1548,1.1544,1.1543,1.155,1.155,1.155,0,1.145,1.1459,1.1464,1.1479,1.1481,1.1484,1.1494,1.1498,1.1508,1.1512,1.1518,1.1525,1.1529,1.1533,1.154,1.154,1.1544,1.1548,1.1548,1.1548,1.1552,1.1548,1.1543,1.1543,1.155,1.155,1.155,0,1.1435,1.1448,1.1454,1.1458,1.1475,1.1477,1.1484,1.1494,1.1499,1.1507,1.151,1.1518,1.1522,1.1527,1.1536,1.1538,1.1543,1.1547,1.1547,1.1547,1.1547,1.1546,1.1542,1.1549,1.1549,1.1549,1.1549,0,1.1425,1.1428,1.1448,1.1451,1.1455,1.1468,1.1472,1.148,1.1489,1.1495,1.1504,1.1509,1.1521,1.1526,1.1533,1.1539,1.154,1.1544,1.1546,1.1544,1.1543,1.1546,1.1546,1.1549,1.1549,1.1549,1.1549,0,1.1408,1.1421,1.1428,1.1445,1.145,1.1452,1.1467,1.1471,1.1479,1.1486,1.1488,1.1501,1.151,1.152,1.153,1.1535,1.154,1.1542,1.1537,1.1538,1.1538,1.1539,1.1535,1.1536,1.1542,1.1542,1.1542,0,1.14,1.1404,1.1422,1.1428,1.1435,1.1443,1.1449,1.1463,1.1469,1.1482,1.1485,1.1494,1.1502,1.1514,1.1524,1.1533,1.1536,1.1535,1.1537,1.1536,1.1537,1.1537,1.1538,1.1533,1.1533,1.1533,1.1533,0,1.1386,1.1394,1.1403,1.1416,1.1424,1.1433,1.1444,1.1447,1.1463,1.1469,1.1479,1.1486,1.1499,1.1508,1.1519,1.1525,1.1532,1.1533,1.1533,1.153,1.1528,1.1531,1.1536,1.1532,1.1532,1.1532,1.1532,1.1532,1.1374,1.1379,1.1394,1.1405,1.1415,1.1425,1.1431,1.1442,1.1451,1.1464,1.1471,1.1481,1.1493,1.1509,1.1515,1.1523,1.1526,1.1526,1.1526,1.1526,1.1526,1.1527,1.1525,1.1525,1.1525,1.1525,1.1525,0,1.1361,1.1373,1.1383,1.1399,1.1408,1.1416,1.1429,1.1436,1.1445,1.1457,1.1466,1.1478,1.1489,1.1501,1.1512,1.1516,1.152,1.1519,1.1518,1.152,1.1523,1.1522,1.1516,1.1516,1.1516,1.1516,1.1516,1.1516,1.1356,1.1365,1.1375,1.139,1.1401,1.1412,1.1419,1.1429,1.1439,1.1453,1.1463,1.1472,1.1484,1.1497,1.1507,1.1511,1.1514,1.1513,1.1517,1.1519,1.152,1.152,1.1519,1.1513,1.1513,1.1514,1.1514,1.1514]}]]